Regional Weather Roundup
Issued by NWS

Home | Current Version | Previous Version | Graphics & Text | Print | Product List | Glossary Off
Versions: 1 2 3 4 5 6 7 8 9 10 11 12 13 14 15 16 17 18 19 20 21 22 23 24 25 26 27 28 29 30 31 32 33 34 35 36 37 38 39 40 41 42 43 44 45 46 47 48 49 50

000
ASUS43 KMKX 180800
RWRWI

WISCONSIN REGIONAL WEATHER ROUNDUP
NATIONAL WEATHER SERVICE MILWAUKEE/SULLIVAN WI
200 AM CST SAT NOV 18 2017

NOTE: "FAIR" INDICATES FEW OR NO CLOUDS BELOW 12,000 FEET WITH NO
SIGNIFICANT WEATHER AND/OR OBSTRUCTIONS TO VISIBILITY.

WIZ001-002-006>008-014>016-023>028-180900-
NORTHWEST WISCONSIN

CITY           SKY/WX    TMP DP  RH WIND       PRES   REMARKS
SUPERIOR ARPT  CLOUDY    33  31  94 N3        29.71R
ASHLAND        CLOUDY    33  32  96 SW3       29.68S FOG
HAYWARD        CLOUDY    34  31  88 N6        29.65S FOG     WCI  29
SIREN          CLOUDY    32  32  99 CALM      29.68F FOG
CUMBERLAND     CLOUDY    32  32 100 N8        29.65S FOG     WCI  25
RICE LAKE      CLOUDY    33  33  99 N6        29.67R FOG     WCI  28
CHETEK         CLOUDY    33  33  99 N5        29.67R FOG     WCI  29
LADYSMITH      CLOUDY    34  33  99 N7        29.65R FOG     WCI  28
EAU CLAIRE     NOT AVBL
MENOMONIE      CLOUDY    35  35 100 NW6       29.66S WCI  30
NEW RICHMOND   CLOUDY    34  34 100 N8        29.68S FOG     WCI  27
OSCEOLA        CLOUDY    34  34 100 CALM      29.71S FOG
$$

WIZ003>005-009-010-017-018-180900-
NORTH CENTRAL WISCONSIN

CITY           SKY/WX    TMP DP  RH WIND       PRES   REMARKS
MANITOWISH WTR FOG       32  32 100 NW3       29.61S VSB 1/4
ARBOR VITAE    FOG       34  33  96 N5        29.59F VSB 1/2 WCI  30
WOODRUFF       FOG       34  33  96 N5        29.59F VSB 1/2 WCI  30
RHINELANDER    CLOUDY    32  32 100 N3        29.58S FOG
EAGLE RIVER    FOG       32  32 100 N5        29.58F VSB 1/2 WCI  28
LAND O LAKES   FOG       33  33 100 N5        29.60S VSB 1/4 WCI  29
PHILLIPS       CLOUDY    32  32 100 N6        29.63R FOG     WCI  26
TOMAHAWK       CLOUDY    32  32  99 N5        29.60S FOG     WCI  27
MEDFORD        CLOUDY    32  32  99 N6        29.58S WCI  26
MERRILL        CLOUDY    33  33 100 N5        29.59F WCI  29
$$

WIZ029-030-035-036-043>047-180900-
CENTRAL WISCONSIN

CITY           SKY/WX    TMP DP  RH WIND       PRES   REMARKS
WAUSAU         CLOUDY    34  32  92 N7        29.58R WCI  28
MOSINEE        NOT AVBL
MARSHFIELD     CLOUDY    34  32  92 N10       29.59R WCI  26
STEVENS POINT  CLOUDY    33  33 100 NW6       29.59R FOG     WCI  27
WAUPACA        CLOUDY    37  35  96 NW3       29.58R FOG
WAUTOMA        CLOUDY    36  34  92 N5        29.59R WCI  32
WISC RAPIDS    CLOUDY    35  34  96 N6        29.60R WCI  30
CAMP DOUGLAS   CLOUDY    36  36  99 N3        29.59F
$$

WIZ011>013-019>022-031-037>040-048>050-180900-
NORTHEAST WISCONSIN

CITY           SKY/WX    TMP DP  RH WIND       PRES   REMARKS
ANTIGO         CLOUDY    32  32 100 N8        29.58R WCI  25
SHAWANO        MOCLDY    35  33  93 NW3       29.57R FOG
OCONTO         CLOUDY    35  34  94 N5        29.55F WCI  31
STURGEON BAY   CLOUDY    37  35  92 N13       29.55F WCI  29
GREEN BAY      PTCLDY    36  36 100 N7        29.56F WCI  30
MANITOWOC      CLOUDY    38  36  92 NW6       29.56S WCI  33
APPLETON       CLOUDY    34  34 100 N8        29.54S FOG     WCI  27
CLINTONVILLE   CLOUDY    36  34  93 NW5       29.57F FOG     WCI  32
OSHKOSH        CLOUDY    37  36  96 NW7       29.58R WCI  32
$$

WIZ032>034-041-042-053>061-180900-
SOUTHWEST WISCONSIN

CITY           SKY/WX    TMP DP  RH WIND       PRES   REMARKS
LA CROSSE      CLOUDY    39  37  92 NW8       29.64R WCI  33
SPARTA         CLOUDY    35  35  99 N3        29.61F
VIROQUA        CLOUDY    36  36 100 N9        29.59R WCI  29
BOSCOBEL       LGT RAIN  40  37  89 N5        29.61R
PRAIRIE DU CHI CLOUDY    38  37  95 NW7       29.59R FOG     WCI  33
PLATTEVILLE    CLOUDY    38  38 100 N10       29.55F WCI  31
$$

WIZ056-057-062-063-064-067-068-180900-
SOUTH CENTRAL WISCONSIN

CITY           SKY/WX    TMP DP  RH WIND       PRES   REMARKS
REEDSBURG      CLOUDY    37  37 100 NW6       29.58S WCI  32
BARABOO/DELLS  CLOUDY    36  36  98 N6        29.57S FOG     WCI  31
LONE ROCK      LGT RAIN  39  38  96 N6        29.56F WCI  35
MINERAL POINT  CLOUDY    37  37 100 N8        29.54F FOG     WCI  31
MADISON        CLOUDY    38  37  97 N8        29.55F FOG     WCI  32
MIDDLETON      CLOUDY    39  39 100 N3        29.57R
WATERTOWN      CLOUDY    38  38 100 N3        29.54F FOG
MONROE         FOG       37  37 100 N8        29.53F VSB 1/4 WCI  31
JANESVILLE     CLOUDY    41  41 100 CALM      29.53F FOG
$$

WIZ051-052-058>065-066-070>072-180900-
SOUTHEAST WISCONSIN

CITY           SKY/WX    TMP DP  RH WIND       PRES   REMARKS
MILWAUKEE      CLOUDY    43  41  93 NW8       29.55S
WAUKESHA       CLOUDY    37  37 100 NW6       29.55F FOG     WCI  33
MILWAUKEE/TIMM CLOUDY    39  36  87 W3        29.55F FOG
RACINE         CLOUDY    42  42 100 CALM      29.56S FOG
BURLINGTON     CLOUDY    43  43 100 CALM      29.54F FOG
KENOSHA        CLOUDY    43  41  93 NW3       29.54F FOG
FOND DU LAC    CLOUDY    38  35  89 N7        29.57R WCI  33
SHEBOYGAN      CLOUDY    39  38  96 NW6       29.55R WCI  35
WEST BEND      CLOUDY    37  37 100 NW7       29.55F WCI  32
JUNEAU         CLOUDY    37  36  99 NW3       29.56F FOG
$$

LSZ147-162-180900-
LAKE SUPERIOR

STATION/POSITION TIME  TEMP    WIND        PRES    WAVE
                       AIR SEA DIR/SP/G            HT/PER
                 (UTC) (F)     (DEG/KT/KT) (MB)    (FT/S)
DEVILS ISLAND    0700   38     350/ 11/ 14 1005.5R
SAXON HARBOR     0730   38     340/ 10/ 13 1004.4R
$$

LMZ867-665-643>646-180900-
LAKE MICHIGAN

STATION/POSITION TIME  TEMP    WIND        PRES    WAVE
                       AIR SEA DIR/SP/G            HT/PER
                 (UTC) (F)     (DEG/KT/KT) (MB)    (FT/S)
N MID LAKE BUOY  0650   40 48  330/ 14/ 17 1001.1F   7/ 8
NORTHPORT PIER   0740   40     340/ 19/ 23 1001.0F
SHEBOYGAN LAKESH 0700   40     340/  6/  6 1000.7F
PORT WASHINGTON  0730   41     320/  3/  4 1001.7S
MILWAUKEE LAKESH 0730   41     290/  3/  4   N/A
S MID LAKE BUOY  0650   46 49  250/  8/ 10 1001.4F   5/ 6
KENOSHA   LAKESH 0700   44     330/  3/  4 1001.4
$$

TC  - TEMPERATURE IN CELSIUS
VSB - VISIBILITY IN STATUTE MILES
WCI - WIND CHILL INDEX
HX  - HEAT INDEX




USA.gov is the U.S. government's official web portal to all federal, state and local government web resources and services.